Погода в Апартадо

Колумбия     7°52′57″N   76°37′38″W
темп.,
°C
ветер,
м/с
пор.,
м/с
влажн.,
%
обл.,
%
осадки,
мм/ч
давл.,
гПа
погр.,
м
6 мая, чт
чт601:00+24ююв1292100 6.6 1012114
04:00+24ююз3595100 4.5 1011223
07:00+24ююв3596100 12.9 1012336
10:00+25ююз2389100 0.3 1013438
13:00+28ююз027498 0.4 1011582
16:00+29сз2269100 0.9 1008504
19:00+26з1284100 4.1 101186
22:00+25ю2390100 2.3 1012111
7 мая, пт
пт701:00+24ю3792100 9.3 1011283
04:00+24ююз379557 1.0 1011327
07:00+24ю3595100 1.9 1012249
10:00+28ю357761 2.0 1013751
13:00+30вюв236585 3.7 1010896
16:00+29ссз1178100 4.4 1008163
19:00+26в1185100 8.3 101035
22:00+25ю2591100 2.4 1012212
8 мая, сб
сб801:00+24ю3594100 4.8 1011273
04:00+24ю349499 2.5 1011273
07:00+24ю239499 4.9 1012238
10:00+24ююв2293100 1.9 1013264
13:00+25юв229092 1.9 1011272
16:00+28юз2273100 0.4 1009626
19:00+25юз1285100 4.2 101176
22:00+25ю2390100 0.6 1013159
9 мая, вс
вс901:00+24ю2394100 0.6 1011190
04:00+24ю359499 0.0 1010251
07:00+24ю3494100 0.0 1011258
10:00+27ююз22766 0.0 1012597
13:00+28ссз21796 1.1 1009582
16:00+28ссз238051 2.1 1007180
19:00+26с4684100 7.3 1008283
22:00+25св3392100 8.1 1010163
10 мая, пн
пн1001:00+24юв2294100 13.0 1009120
04:00+24ююв129340 0.1 1008126
07:00+24ю239492 0.1 1010223
10:00+27ю348192 0.1 1010634
13:00+30юв126825 0.4 1007816
16:00+29сз2382100 2.4 1006144
19:00+26зюз1185100 5.5 100880
22:00+25ююв2494100 0.5 1010206